Showing default

HORUS 1, 55690

Orbit data source: Space-Track

HORUS 1, 55690 is a payload satellite owned by EgSA (EG) in SSO that was launched on Fri, 24 Feb 2023 UTC via a CHANG ZHENG 2C launch vehicle from the Jiuquan Satellite Launch Center, China (JSC). Payload-class satellites include a variety of spacecraft equipped with specific instruments for various scientific and technological missions. These include communications satellites like Starlink; space stations such as the ISS; scientific satellites like the Hubble; Earth observation satellites from companies like Planet Labs, Umbra, and HawkEye 360; GPS; miniature CubeSats for education and research; and military/defense satellites.

Loading next visibility...
Identifier
55690, 2023-025A
Orbit
SSO
Country
Flag of EGEG / EGYP
Related business
Manufacturer
DFH
Mission
Operational Defense Imaging
Bus & Motor
CAST-2000?, Unknown motor
Mass
~330 kg wet, ~330 kg dry
Launch date (UTC)
2023-02-24 (3 years ago)
Launch vehicle
CHANG ZHENG 2C
Launch site
Jiuquan Satellite Launch Center, China (JSC)
Object type
Payload
Rocket body
Debris
Shape & HBR
Box + 2 Pan, 2.0 m
Radar Cross Section
2.815 m², Large (>1 m²)

Expand to show TLE details & history
Last TLE update: 1 day ago

TLE from 1 day ago
0 HORUS 1
1 55690U 23025A   26172.48843044  .00004392  00000-0  18808-3 0  9996
2 55690  97.3459 246.9936 0001697 145.3479 214.7869 15.23298770184700
Epoch: 2026-06-21T11:43Z
TLE epoch observation values (Epoch: 2026-06-21T11:43:20.390Z)
Latitude
0.00002°
Longitude
161.47066°
Altitude
499.953 km
Speed
7.614 km/s
True Right ascension
16h 27m 58s
True Declination
0° 00' 00"
Sunlit
Object was in full shadow at epoch
Visualization orbit readout
Latitude
Unknown
Longitude
Unknown
Altitude
Unknown
Speed
Unknown
Apparent Right ascension
Unknown
Apparent Declination
Unknown
Sunlit
N/A
Visualization observer readout
Local Sidereal Time
23:08:17
Azimuth
Unknown
Elevation
Unknown
Doppler factor
Unknown
Orbital elements
Apogee altitude
494.024 km
Perigee altitude
491.692 km
Semi-major axis
6,870.995 km
Eccentricity
0.00017
Inclination
97.3459°
RAAN
246.9936°
Arg. of periapsis
145.3479°
True anomaly
214.77581°
Mean anomaly
214.7869°
Eccentric anomaly
214.78135°
Mean motion
3.81078 °/min
Orbital period
94.47 mins
BSTAR
0.00018808
Loading maneuver chart data...
Computing Atmospheric mass density...
Loading historical data...
Loading historical data...
Loading historical data...
Loading historical data...
Loading historical data...
Loading historical data...
Loading historical data...

Documentation

Showing up to 5 results
|